Radiation Dose at Monitoring Post of Fukushima Daini Nuclear Power Station
Date,Time,MP-1(microSv/h),MP-2(microSv/h),MP-3(microSv/h),MP-4(microSv/h),MP-5(microSv/h),MP-6(microSv/h),MP-7(microSv/h),Wind Direction,Wind Velocity(m/s),Rain
2022/10/14,00:00,0.151,0.136,0.219,0.211,0.214,0.120,0.075,north-northwest,6.1,No
2022/10/14,00:10,0.150,0.135,0.218,0.210,0.212,0.119,0.077,north-northwest,6.7,No
2022/10/14,00:20,0.150,0.134,0.218,0.210,0.214,0.119,0.076,north-northwest,7.0,No
2022/10/14,00:30,0.150,0.135,0.217,0.210,0.212,0.120,0.076,north-northwest,6.9,No
2022/10/14,00:40,0.150,0.135,0.219,0.210,0.213,0.118,0.076,north-northwest,5.9,No
2022/10/14,00:50,0.149,0.136,0.217,0.210,0.213,0.118,0.075,north-northwest,5.9,No
2022/10/14,01:00,0.151,0.136,0.218,0.210,0.213,0.118,0.077,north-northwest,6.1,No
2022/10/14,01:10,0.150,0.135,0.218,0.211,0.212,0.119,0.077,north-northwest,6.3,No
2022/10/14,01:20,0.150,0.135,0.218,0.210,0.214,0.119,0.076,north-northwest,7.2,No
2022/10/14,01:30,0.150,0.135,0.218,0.211,0.212,0.120,0.076,north-northwest,7.2,No
2022/10/14,01:40,0.151,0.135,0.218,0.209,0.211,0.118,0.076,north-northwest,7.1,No
2022/10/14,01:50,0.150,0.135,0.218,0.211,0.213,0.119,0.077,north-northwest,7.0,No
2022/10/14,02:00,0.151,0.136,0.218,0.209,0.212,0.118,0.077,north-northwest,7.6,No
2022/10/14,02:10,0.150,0.135,0.218,0.211,0.212,0.120,0.076,north-northwest,7.8,No
2022/10/14,02:20,0.151,0.135,0.218,0.209,0.213,0.119,0.077,northwest,7.5,No
2022/10/14,02:30,0.149,0.135,0.219,0.210,0.212,0.119,0.077,north-northwest,7.4,No
2022/10/14,02:40,0.151,0.135,0.218,0.209,0.213,0.118,0.076,north-northwest,7.2,No
2022/10/14,02:50,0.150,0.135,0.219,0.210,0.212,0.119,0.077,northwest,7.3,No
2022/10/14,03:00,0.150,0.135,0.219,0.210,0.211,0.119,0.076,north-northwest,8.1,No
2022/10/14,03:10,0.152,0.136,0.218,0.210,0.214,0.119,0.077,north-northwest,7.8,No
2022/10/14,03:20,0.150,0.135,0.219,0.211,0.213,0.119,0.076,northwest,7.4,No
2022/10/14,03:30,0.150,0.136,0.219,0.209,0.215,0.120,0.077,northwest,7.6,No
2022/10/14,03:40,0.151,0.134,0.219,0.211,0.212,0.119,0.076,north-northwest,8.1,No
2022/10/14,03:50,0.150,0.135,0.218,0.210,0.213,0.120,0.076,north-northwest,7.5,No
2022/10/14,04:00,0.150,0.135,0.219,0.210,0.212,0.119,0.076,north-northwest,7.9,No
2022/10/14,04:10,0.151,0.135,0.219,0.208,0.214,0.120,0.077,north-northwest,7.7,No
2022/10/14,04:20,0.149,0.135,0.219,0.212,0.213,0.119,0.076,north-northwest,7.4,No
2022/10/14,04:30,0.151,0.135,0.218,0.209,0.213,0.120,0.077,north-northwest,8.3,No
2022/10/14,04:40,0.151,0.135,0.218,0.210,0.212,0.119,0.076,north-northwest,8.2,No
2022/10/14,04:50,0.151,0.134,0.219,0.210,0.213,0.119,0.077,north-northwest,7.1,No
2022/10/14,05:00,0.150,0.136,0.218,0.211,0.212,0.119,0.076,north-northwest,7.7,No
2022/10/14,05:10,0.151,0.135,0.220,0.210,0.214,0.119,0.076,north-northwest,8.1,No
2022/10/14,05:20,0.151,0.135,0.218,0.210,0.212,0.119,0.076,north-northwest,7.8,Yes
2022/10/14,05:30,0.151,0.136,0.219,0.211,0.214,0.119,0.076,north-northwest,7.5,No
2022/10/14,05:40,0.150,0.136,0.218,0.209,0.212,0.118,0.077,north-northwest,7.8,No
2022/10/14,05:50,0.151,0.135,0.218,0.211,0.214,0.119,0.077,north-northwest,7.9,No
2022/10/14,06:00,0.152,0.135,0.219,0.209,0.213,0.119,0.076,north-northwest,8.5,No
2022/10/14,06:10,0.151,0.135,0.220,0.211,0.213,0.119,0.077,north-northwest,8.4,No
2022/10/14,06:20,0.152,0.136,0.220,0.209,0.213,0.119,0.076,north-northwest,8.1,No
2022/10/14,06:30,0.149,0.136,0.218,0.210,0.213,0.119,0.076,northwest,7.6,No
2022/10/14,06:40,0.151,0.135,0.219,0.209,0.213,0.118,0.076,north-northwest,7.0,No
2022/10/14,06:50,0.149,0.136,0.220,0.210,0.212,0.119,0.077,north-northwest,6.5,No
2022/10/14,07:00,0.151,0.136,0.217,0.211,0.213,0.119,0.076,northwest,7.6,No
2022/10/14,07:10,0.150,0.135,0.220,0.209,0.212,0.118,0.076,north-northwest,7.4,No
2022/10/14,07:20,0.151,0.136,0.217,0.210,0.213,0.119,0.076,north-northwest,6.9,No
2022/10/14,07:30,0.150,0.134,0.219,0.209,0.212,0.119,0.076,north-northwest,6.6,No
2022/10/14,07:40,0.152,0.136,0.218,0.210,0.213,0.120,0.077,north-northwest,7.0,No
2022/10/14,07:50,0.150,0.135,0.219,0.210,0.212,0.120,0.077,north-northwest,6.3,No
2022/10/14,08:00,0.151,0.135,0.218,0.211,0.213,0.119,0.076,north-northwest,6.2,No
2022/10/14,08:10,0.150,0.136,0.219,0.209,0.211,0.119,0.077,north-northwest,6.2,No
2022/10/14,08:20,0.150,0.136,0.217,0.211,0.213,0.118,0.076,north-northwest,6.0,No
2022/10/14,08:30,0.150,0.135,0.220,0.209,0.212,0.120,0.077,north-northwest,5.7,No
2022/10/14,08:40,0.151,0.136,0.218,0.210,0.213,0.119,0.076,north-northwest,5.5,No
2022/10/14,08:50,0.151,0.136,0.220,0.210,0.214,0.119,0.077,north-northwest,5.6,No
2022/10/14,09:00,0.151,0.135,0.219,0.211,0.212,0.118,0.076,north-northwest,5.9,No
2022/10/14,09:10,0.150,0.135,0.219,0.210,0.213,0.120,0.077,northwest,5.9,No
2022/10/14,09:20,0.151,0.135,0.219,0.210,0.211,0.120,0.076,north-northwest,6.6,No
2022/10/14,09:30,0.149,0.134,0.219,0.210,0.214,0.119,0.076,northwest,6.7,No
2022/10/14,09:40,0.150,0.136,0.218,0.208,0.211,0.120,0.076,north-northwest,6.7,No
2022/10/14,09:50,0.150,0.134,0.219,0.211,0.212,0.119,0.077,northwest,5.6,No
2022/10/14,10:00,0.150,0.135,0.217,0.209,0.213,0.119,0.077,northwest,6.0,No
2022/10/14,10:10,0.151,0.135,0.218,0.211,0.211,0.120,0.076,northwest,7.2,Yes
2022/10/14,10:20,0.150,0.135,0.219,0.209,0.215,0.119,0.077,north-northwest,6.4,Yes
2022/10/14,10:30,0.150,0.136,0.218,0.208,0.212,0.120,0.076,north-northwest,7.5,Yes
2022/10/14,10:40,0.150,0.134,0.219,0.211,0.210,0.119,0.076,northwest,6.4,Yes
2022/10/14,10:50,0.151,0.135,0.218,0.209,0.213,0.118,0.075,north-northwest,6.7,No
2022/10/14,11:00,0.150,0.136,0.217,0.208,0.213,0.119,0.076,northwest,6.5,No
2022/10/14,11:10,0.149,0.135,0.219,0.210,0.210,0.120,0.077,north-northwest,5.5,No
2022/10/14,11:20,0.151,0.135,0.218,0.210,0.214,0.118,0.076,northwest,4.9,No
2022/10/14,11:30,0.151,0.134,0.217,0.208,0.213,0.119,0.077,north-northwest,6.4,No
2022/10/14,11:40,0.152,0.136,0.220,0.212,0.212,0.120,0.076,north-northwest,5.9,Yes
2022/10/14,11:50,0.151,0.136,0.218,0.210,0.212,0.118,0.076,north-northwest,6.3,Yes
2022/10/14,12:00,0.149,0.136,0.218,0.209,0.213,0.118,0.077,north,5.7,Yes
2022/10/14,12:10,0.151,0.134,0.220,0.210,0.212,0.120,0.077,north,4.8,No
2022/10/14,12:20,0.150,0.136,0.219,0.211,0.212,0.119,0.076,north,4.4,No
2022/10/14,12:30,0.151,0.135,0.219,0.209,0.213,0.119,0.077,north,5.2,No
2022/10/14,12:40,0.151,0.135,0.220,0.210,0.211,0.120,0.076,north-northwest,4.7,Yes
2022/10/14,12:50,0.151,0.135,0.217,0.210,0.214,0.119,0.076,north,4.7,Yes
2022/10/14,13:00,0.151,0.135,0.220,0.210,0.213,0.119,0.076,north-northwest,4.1,Yes
2022/10/14,13:10,0.150,0.136,0.219,0.211,0.210,0.118,0.076,north-northwest,4.3,Yes
2022/10/14,13:20,0.150,0.135,0.217,0.209,0.213,0.118,0.077,north-northwest,4.6,No
2022/10/14,13:30,0.150,0.135,0.221,0.209,0.214,0.120,0.076,north-northwest,4.7,No
2022/10/14,13:40,0.150,0.136,0.218,0.211,0.212,0.119,0.076,north-northwest,4.7,No
2022/10/14,13:50,0.150,0.135,0.219,0.209,0.214,0.118,0.077,north-northwest,5.1,No
2022/10/14,14:00,0.150,0.135,0.219,0.211,0.213,0.119,0.077,north-northwest,4.7,No
2022/10/14,14:10,0.152,0.134,0.218,0.210,0.211,0.118,0.076,north,4.3,No
2022/10/14,14:20,0.149,0.135,0.221,0.210,0.214,0.118,0.076,north,4.2,No
2022/10/14,14:30,0.150,0.136,0.217,0.211,0.213,0.119,0.076,north,5.3,No
2022/10/14,14:40,0.150,0.136,0.219,0.209,0.212,0.119,0.076,north,4.3,No
2022/10/14,14:50,0.150,0.136,0.219,0.210,0.214,0.119,0.076,north,4.5,No
2022/10/14,15:00,0.151,0.134,0.220,0.210,0.210,0.119,0.076,north,4.6,No
2022/10/14,15:10,0.151,0.136,0.219,0.209,0.212,0.119,0.076,north-northwest,4.9,No
2022/10/14,15:20,0.152,0.135,0.218,0.211,0.213,0.120,0.076,north-northwest,3.7,No
2022/10/14,15:30,0.151,0.136,0.220,0.210,0.212,0.118,0.077,north-northwest,3.5,No
2022/10/14,15:40,0.152,0.135,0.218,0.212,0.215,0.119,0.076,north-northwest,3.5,No
2022/10/14,15:50,0.150,0.136,0.219,0.209,0.212,0.119,0.076,north-northwest,4.3,No
2022/10/14,16:00,0.150,0.135,0.219,0.210,0.214,0.119,0.076,north-northwest,4.1,Yes
2022/10/14,16:10,0.150,0.135,0.219,0.210,0.212,0.120,0.076,north-northwest,3.4,No
2022/10/14,16:20,0.150,0.135,0.219,0.210,0.212,0.119,0.077,north-northwest,4.4,No
2022/10/14,16:30,0.151,0.135,0.219,0.210,0.214,0.120,0.077,north-northwest,3.7,No
2022/10/14,16:40,0.149,0.136,0.219,0.211,0.211,0.119,0.076,north-northwest,4.4,No
2022/10/14,16:50,0.151,0.135,0.219,0.211,0.214,0.118,0.077,north-northwest,4.1,No
2022/10/14,17:00,0.149,0.135,0.218,0.210,0.211,0.119,0.076,north-northwest,4.4,No
2022/10/14,17:10,0.152,0.135,0.219,0.212,0.213,0.119,0.076,north-northwest,4.7,No
2022/10/14,17:20,0.151,0.136,0.220,0.210,0.212,0.120,0.076,north-northwest,5.2,No
2022/10/14,17:30,0.151,0.136,0.219,0.211,0.214,0.118,0.076,north-northwest,5.4,No
2022/10/14,17:40,0.151,0.135,0.219,0.211,0.213,0.119,0.076,north-northwest,6.2,No
2022/10/14,17:50,0.150,0.135,0.220,0.212,0.212,0.118,0.076,north-northwest,6.3,No
2022/10/14,18:00,0.151,0.136,0.220,0.210,0.213,0.120,0.077,north-northwest,5.6,No
2022/10/14,18:10,0.151,0.135,0.219,0.211,0.213,0.120,0.076,north-northwest,5.8,No
2022/10/14,18:20,0.151,0.136,0.220,0.210,0.213,0.119,0.076,north-northwest,6.0,No
2022/10/14,18:30,0.151,0.135,0.221,0.212,0.213,0.119,0.076,north-northwest,5.8,No
2022/10/14,18:40,0.151,0.135,0.219,0.210,0.214,0.119,0.077,north-northwest,5.8,No
2022/10/14,18:50,0.151,0.135,0.219,0.211,0.213,0.119,0.076,northwest,6.6,No
2022/10/14,19:00,0.151,0.134,0.219,0.210,0.214,0.120,0.076,northwest,6.6,No
2022/10/14,19:10,0.150,0.136,0.220,0.211,0.211,0.119,0.076,northwest,7.6,No
2022/10/14,19:20,0.151,0.135,0.219,0.210,0.213,0.119,0.076,north-northwest,7.7,No
2022/10/14,19:30,0.150,0.135,0.220,0.213,0.212,0.120,0.076,north-northwest,7.7,No
2022/10/14,19:40,0.150,0.135,0.219,0.210,0.214,0.119,0.076,northwest,6.8,No
2022/10/14,19:50,0.150,0.136,0.220,0.211,0.211,0.119,0.076,northwest,5.9,No
2022/10/14,20:00,0.151,0.135,0.219,0.210,0.215,0.119,0.076,north-northwest,6.4,No
2022/10/14,20:10,0.150,0.136,0.220,0.212,0.211,0.119,0.077,north-northwest,6.2,No
2022/10/14,20:20,0.151,0.136,0.219,0.211,0.214,0.119,0.076,north,6.2,No
2022/10/14,20:30,0.150,0.136,0.218,0.211,0.212,0.120,0.076,north-northwest,6.1,No
2022/10/14,20:40,0.151,0.136,0.219,0.211,0.214,0.119,0.076,north-northwest,6.5,No
2022/10/14,20:50,0.150,0.136,0.218,0.210,0.213,0.121,0.076,north-northwest,6.7,No
2022/10/14,21:00,0.151,0.135,0.219,0.211,0.215,0.119,0.077,north-northwest,6.4,No
2022/10/14,21:10,0.150,0.135,0.219,0.212,0.212,0.120,0.077,north-northwest,6.3,No
2022/10/14,21:20,0.152,0.135,0.219,0.212,0.214,0.119,0.078,north-northwest,6.6,No
2022/10/14,21:30,0.150,0.136,0.219,0.211,0.212,0.119,0.077,north-northwest,6.7,No
2022/10/14,21:40,0.152,0.135,0.220,0.212,0.215,0.119,0.077,north-northwest,6.8,No
2022/10/14,21:50,0.150,0.135,0.219,0.210,0.212,0.120,0.077,northwest,7.3,No
2022/10/14,22:00,0.151,0.135,0.220,0.212,0.214,0.119,0.076,north-northwest,7.2,No
2022/10/14,22:10,0.150,0.135,0.219,0.210,0.212,0.120,0.076,north-northwest,7.0,No
2022/10/14,22:20,0.152,0.136,0.219,0.210,0.214,0.120,0.077,north-northwest,6.1,No
2022/10/14,22:30,0.150,0.134,0.219,0.210,0.212,0.120,0.075,northwest,5.8,No
2022/10/14,22:40,0.152,0.136,0.219,0.212,0.213,0.119,0.076,northwest,6.2,No
2022/10/14,22:50,0.149,0.136,0.219,0.209,0.212,0.119,0.077,northwest,6.4,No
2022/10/14,23:00,0.151,0.135,0.219,0.211,0.213,0.118,0.077,north-northwest,6.4,No
2022/10/14,23:10,0.149,0.134,0.219,0.210,0.213,0.119,0.076,north-northwest,7.1,No
2022/10/14,23:20,0.151,0.136,0.220,0.211,0.213,0.118,0.076,north-northwest,7.3,No
2022/10/14,23:30,0.151,0.135,0.220,0.210,0.214,0.120,0.076,northwest,7.0,No
2022/10/14,23:40,0.152,0.136,0.219,0.210,0.211,0.119,0.075,north-northwest,6.9,No
2022/10/14,23:50,0.151,0.136,0.219,0.208,0.214,0.119,0.076,northwest,6.6,No
